Regional Weather Roundup
Issued by NWS

Home | Current Version | Previous Version | Graphics & Text | Print | Product List | Glossary On
Versions: 1 2 3 4 5 6 7 8 9 10 11 12 13 14 15 16 17 18 19 20 21 22 23 24 25 26 27 28 29 30 31 32 33 34 35 36 37 38 39 40 41 42 43 44 45 46 47 48 49 50
000
ASUS45 KCYS 201110
RWRWY

WYOMING REGIONAL WEATHER ROUNDUP
NATIONAL WEATHER SERVICE CHEYENNE WY
400 AM MST THU NOV 20 2014

NOTE:  "FAIR" INDICATES FEW OR NO CLOUDS BELOW 12,000 FEET
WITH NO SIGNIFICANT WEATHER AND/OR OBSTRUCTIONS TO VISIBILITY.

WYZ001-201200-
YELLOWSTONE NATIONAL PARK

CITY           SKY/WX    TMP DP  RH WIND       PRES   REMARKS
LK YELLOWSTONE   N/A     18  15  88 CALM      30.07F
W YELLOWSTONE  NOT AVBL

$$
WYZ002>013-054>058-071-098>099-201200-
NORTHERN WYOMING

CITY           SKY/WX    TMP DP  RH WIND       PRES   REMARKS
JACKSON        NOT AVBL
CODY           PTCLDY    10   3  72 SE3       29.92F
GREYBULL       PTCLDY    -1  -5  82 CALM      30.01F
WORLAND        PTCLDY     7   3  84 S5        29.98F WCI  -2
SHERIDAN       PTCLDY    13   9  84 CALM      29.91F
BUFFALO        MOCLDY    25  11  55 CALM      29.91F
GILLETTE       PTCLDY    12   7  80 N3        29.92F
HULETT         FAIR      14  12  92 SW6       29.94S WCI   5
NEWCASTLE        N/A    N/A N/A N/A MISG        N/A

$$
WYZ014>020-022>026-101>103-201200-
CENTRAL WYOMING

CITY           SKY/WX    TMP DP  RH WIND       PRES   REMARKS
BIG PINEY      PTCLDY    15  10  80 CALM      30.05F
PINEDALE       PTSUNNY   18  12  79 NW3       30.05F
DUBOIS         FAIR      30  10  43 NW21      29.96F WCI  17
LANDER         CLEAR     12   9  87 NW9       29.96F WCI   0
RIVERTON       PTCLDY    11   7  84 NE5       29.98F WCI   3
CASPER         CLEAR     22  12  65 SW9       29.96F WCI  12
DOUGLAS        PTCLDY    10   5  80 CALM      29.98F

$$
WYZ021-027>030-104>119-201200-
SOUTHERN WYOMING

CITY           SKY/WX    TMP DP  RH WIND       PRES   REMARKS
EVANSTON       PTCLDY    29  11  47 SW7       30.08F WCI  22
KEMMERER       PTSUNNY   28  16  59 NW7       30.07S WCI  21
FORT BRIDGER   PTSUNNY   32  15  49 W7        30.09S WCI  25
ROCK SPRINGS   MOCLDY    31  13  47 W9        30.06S WCI  23
DIXON          CLOUDY    26  19  75 CALM      30.11S
RAWLINS        CLEAR     28  10  46 W3        30.02F
SARATOGA       PTSUNNY   27  18  69 CALM      30.04F
LARAMIE        CLEAR     25   7  46 SW6       29.99S WCI  18
CHEYENNE       PTCLDY    23  10  57 NW5       29.97S WCI  17
TORRINGTON     PTCLDY    13  10  88 NW3       29.98F
PINE BLUFFS    FAIR      12   9  85 SW3       29.99S

$$



USA.gov is the U.S. government's official web portal to all federal, state and local government web resources and services.